{"data":{"norad_id":61756,"epoch":"2026-05-25T03:55:49.391040Z","epoch_age_seconds":64107,"freshness":"FRESH","line1":"1 61756U 24199X   26145.16376610  .00077872  00000+0  78020-3 0  9998","line2":"2 61756  97.2942  23.6699 0004203  30.0059 330.1441 15.65286691134194","mean_motion":15.65286691,"eccentricity":0.0004203,"inclination_deg":97.2942,"raan_deg":23.6699,"arg_perigee_deg":30.0059,"mean_anomaly_deg":330.1441,"bstar":0.0007802,"rev_number":13419,"period_min":91.995926898225,"perigee_km":369.57710940656,"apogee_km":375.25162288495,"semimajor_km":6750.5513661458,"source":"CELESTRAK","updated_at":"2026-05-25T13:38:02.555356Z"}}